Weather in Surazh

Belarus     55°24′25″N   30°43′13″E
temp.,
°C
wind,
m/s
gust,
m/s
humid.,
%
clouds,
%
prec.,
mm/h
press.,
hPa
HPBL,
m
20 april, tue
tue2000:00+6ne2887100 0.0 1021240
03:00+6ne2485100 0.0 1020181
06:00+6ene4884100 0.4 1019636
09:00+7e587797 0.4 1018917
12:00+5e4690100 0.1 1017798
15:00+4ene3694100 0.2 1017766
18:00+4ene3696100 0.1 1015653
21:00+4ne2896100 0.7 1014717
21 april, wed
wed2100:00+4ene269245 0.1 1012436
03:00+1ne11957 0.1 101112
06:00+1nnw129499 0.0 101036
09:00+4wnw2384100 0.0 1009298
12:00+9w346593 0.1 10081309
15:00+9w346279 0.4 10081183
18:00+9wsw356654 0.4 1008962
21:00+5ssw24825 0.4 100958
22 april, thu
thu2200:00+4s388795 0.0 1009157
03:00+5ssw3108473 0.0 1009272
06:00+3s289527 0.0 1009169
09:00+9ssw367476 0.0 1010404
12:00+13ssw576226 0.8 10091282
15:00+14ssw585727 2.1 10081676
18:00+12sw486930 1.3 1008975
21:00+7wsw269187 1.8 1010135
23 april, fri
fri2300:00+6sw1186100 0.0 101017
03:00+6sw3783100 0.8 1010468
06:00+4s3690100 0.6 1011369
09:00+6sw3678100 0.9 1012757
12:00+7sw4660100 0.0 10131460
15:00+9sw4647100 0.0 10131876
18:00+8sw3557100 0.1 10131168
21:00+4w1174100 0.3 101311
24 april, sat
sat2400:00+3wsw2481100 0.0 101274
03:00+1wsw26895 0.0 1011141
06:00−1wsw26955 0.0 1011171
09:00+2wsw458299 0.0 1011650
12:00+3sw3575100 0.0 10111049
15:00+5wsw4670100 0.3 10101050
18:00+4w5775100 0.8 10101025
21:00+2wsw3987100 0.8 1011584